CFG2016 EDDS-EGLL

Flight info

Callsign CFG2016
Flight time 1h 17m
Altitude 24000
Route VESID4B/25 VESID Y127 TUDGA/N0493F430 Y127 BANIM L608 LIRSU DCT DENUT L608 LOGAN
Aircraft A359/H-SDE2E3GHIJ3J4J5LM1ORWXY/LB1D1

Departure

Time 2026-05-06 16:49
Airport Stuttgart Airport (EDDS)

Arrival

Time 2026-05-06 18:06
Airport London Heathrow Airport (EGLL)
Time Latitude Longitude Altitude Speed Heading
2026-05-06 16:30 48.69187 9.20686 1284 ft 0 kts 343°
2026-05-06 16:39 48.69179 9.20689 1284 ft 3 kts 339°
2026-05-06 16:39 48.69163 9.20700 1289 ft 3 kts 320°
2026-05-06 16:39 48.69152 9.20715 1287 ft 3 kts 289°
2026-05-06 16:39 48.69149 9.20732 1287 ft 3 kts 253°
2026-05-06 16:40 48.69157 9.20757 1286 ft 4 kts 238°
2026-05-06 16:40 48.69166 9.20781 1285 ft 2 kts 243°
2026-05-06 16:41 48.69036 9.20564 1281 ft 35 kts 201°
2026-05-06 16:41 48.68914 9.20616 1277 ft 14 kts 131°
2026-05-06 16:42 48.68897 9.20729 1275 ft 10 kts 81°
2026-05-06 16:42 48.68904 9.20843 1275 ft 9 kts 101°
2026-05-06 16:42 48.68870 9.20936 1271 ft 12 kts 130°
2026-05-06 16:42 48.68829 9.21044 1274 ft 4 kts 104°
2026-05-06 16:43 48.68828 9.21046 1274 ft 0 kts 105°
2026-05-06 16:43 48.68831 9.21070 1268 ft 4 kts 76°
2026-05-06 16:43 48.68849 9.21095 1269 ft 7 kts 39°
2026-05-06 16:44 48.68912 9.21168 1272 ft 16 kts 35°
2026-05-06 16:44 48.69005 9.21283 1271 ft 17 kts 52°
2026-05-06 16:44 48.69047 9.21442 1268 ft 17 kts 85°
2026-05-06 16:44 48.69057 9.21631 1258 ft 19 kts 75°
2026-05-06 16:45 48.69098 9.21866 1254 ft 28 kts 73°
2026-05-06 16:45 48.69161 9.22182 1246 ft 34 kts 73°
2026-05-06 16:45 48.69236 9.22560 1233 ft 40 kts 73°
2026-05-06 16:45 48.69316 9.22978 1230 ft 43 kts 74°
2026-05-06 16:46 48.69397 9.23433 1217 ft 48 kts 75°
2026-05-06 16:46 48.69495 9.23932 1203 ft 45 kts 72°
2026-05-06 16:46 48.69549 9.24220 1198 ft 13 kts 90°
2026-05-06 16:46 48.69538 9.24260 1197 ft 7 kts 121°
2026-05-06 16:47 48.69490 9.24316 1195 ft 10 kts 159°
2026-05-06 16:47 48.69418 9.24325 1195 ft 9 kts 192°
2026-05-06 16:47 48.69388 9.24291 1196 ft 4 kts 234°
2026-05-06 16:47 48.69386 9.24279 1196 ft 0 kts 248°
2026-05-06 16:48 48.69381 9.24261 1196 ft 15 kts 248°
2026-05-06 16:48 48.69273 9.23735 1207 ft 88 kts 255°
2026-05-06 16:48 48.69046 9.22541 1249 ft 146 kts 253°
2026-05-06 16:48 48.68727 9.20926 1753 ft 162 kts 253°
2026-05-06 16:49 48.68701 9.19229 2558 ft 165 kts 263°
2026-05-06 16:49 48.68381 9.17420 2991 ft 192 kts 249°
2026-05-06 16:49 48.67879 9.15424 3558 ft 210 kts 249°
2026-05-06 16:49 48.67396 9.13251 4147 ft 229 kts 255°
2026-05-06 16:50 48.67499 9.10750 4658 ft 253 kts 287°
2026-05-06 16:50 48.68282 9.08348 4944 ft 261 kts 300°
2026-05-06 16:50 48.69574 9.06464 5423 ft 263 kts 326°
2026-05-06 16:50 48.71304 9.05391 6138 ft 274 kts 338°
2026-05-06 16:51 48.73141 9.04512 7108 ft 278 kts 339°
2026-05-06 16:51 48.74996 9.03613 8156 ft 282 kts 338°
2026-05-06 16:51 48.76872 9.02682 9237 ft 286 kts 338°
2026-05-06 16:51 48.78749 9.01737 10196 ft 293 kts 338°
2026-05-06 16:52 48.80773 9.00664 10700 ft 316 kts 336°
2026-05-06 16:52 48.82866 8.99415 11172 ft 338 kts 335°
2026-05-06 16:52 48.85097 8.98072 11961 ft 349 kts 335°
2026-05-06 16:52 48.87375 8.96715 12870 ft 355 kts 335°
2026-05-06 16:53 48.89698 8.95339 13790 ft 361 kts 335°
2026-05-06 16:53 48.92053 8.93945 14606 ft 367 kts 336°
2026-05-06 16:53 48.94451 8.92526 15416 ft 373 kts 336°
2026-05-06 16:53 48.96892 8.91084 16203 ft 379 kts 336°
2026-05-06 16:54 48.99364 8.89616 16988 ft 384 kts 336°
2026-05-06 16:54 49.01866 8.88116 17802 ft 389 kts 336°
2026-05-06 16:54 49.04360 8.86621 18582 ft 394 kts 336°
2026-05-06 16:54 49.06939 8.85076 19310 ft 400 kts 336°
2026-05-06 16:55 49.09546 8.83512 20064 ft 405 kts 337°
2026-05-06 16:55 49.12202 8.81918 20819 ft 410 kts 337°
2026-05-06 16:55 49.14884 8.80393 21555 ft 416 kts 341°
2026-05-06 16:55 49.17747 8.79572 22293 ft 422 kts 357°
2026-05-06 16:56 49.20701 8.79596 23053 ft 427 kts
2026-05-06 16:56 49.23682 8.79922 23586 ft 432 kts
2026-05-06 16:56 49.26671 8.80387 23773 ft 430 kts
2026-05-06 16:56 49.29634 8.80890 23810 ft 426 kts
2026-05-06 16:57 49.32530 8.81368 23810 ft 425 kts
2026-05-06 16:57 49.35485 8.81829 23810 ft 425 kts
2026-05-06 16:57 49.38427 8.82261 23807 ft 425 kts
2026-05-06 16:57 49.41367 8.82678 23806 ft 425 kts
2026-05-06 16:58 49.44311 8.83086 23810 ft 424 kts
2026-05-06 16:58 49.47248 8.83485 23807 ft 424 kts
2026-05-06 16:58 49.50187 8.83883 23810 ft 424 kts
2026-05-06 16:58 49.53127 8.84046 23806 ft 424 kts 358°
2026-05-06 16:59 49.56049 8.83463 23806 ft 424 kts 347°
2026-05-06 16:59 49.58830 8.82000 23807 ft 423 kts 334°
2026-05-06 16:59 49.61331 8.79662 23807 ft 421 kts 321°
2026-05-06 16:59 49.63459 8.76579 23804 ft 419 kts 311°
2026-05-06 17:00 49.65366 8.73250 23807 ft 419 kts 309°
2026-05-06 17:00 49.67229 8.69782 23804 ft 419 kts 308°
2026-05-06 17:00 49.69060 8.66290 23803 ft 419 kts 307°
2026-05-06 17:00 49.70897 8.62786 23791 ft 419 kts 308°
2026-05-06 17:01 49.72887 8.59495 23806 ft 420 kts 314°
2026-05-06 17:01 49.74962 8.56332 23808 ft 420 kts 315°
2026-05-06 17:01 49.77063 8.53229 23807 ft 419 kts 315°
2026-05-06 17:01 49.79198 8.50128 23808 ft 420 kts 316°
2026-05-06 17:02 49.81307 8.47081 23798 ft 420 kts 316°
2026-05-06 17:02 49.83371 8.43885 23802 ft 419 kts 309°
2026-05-06 17:02 49.85014 8.40181 23811 ft 417 kts 296°
2026-05-06 17:02 49.86168 8.36090 23811 ft 415 kts 289°
2026-05-06 17:03 49.87152 8.31862 23812 ft 415 kts 287°
2026-05-06 17:03 49.88047 8.27612 23813 ft 415 kts 285°
2026-05-06 17:03 49.88909 8.23337 23813 ft 415 kts 285°
2026-05-06 17:03 49.89762 8.19076 23820 ft 415 kts 285°
2026-05-06 17:04 49.90624 8.14812 23813 ft 415 kts 285°
2026-05-06 17:04 49.91497 8.10543 23815 ft 415 kts 285°
2026-05-06 17:04 49.92368 8.06324 23815 ft 415 kts 285°
2026-05-06 17:04 49.93254 8.02050 23818 ft 415 kts 286°
2026-05-06 17:05 49.94119 7.97774 23817 ft 414 kts 283°
2026-05-06 17:05 49.94692 7.93406 23815 ft 413 kts 277°
2026-05-06 17:05 49.95122 7.89009 23816 ft 413 kts 276°
2026-05-06 17:05 49.95496 7.84592 23819 ft 413 kts 275°
2026-05-06 17:06 49.95609 7.83170 23820 ft 413 kts 275°
2026-05-06 17:06 49.95838 7.80226 23818 ft 413 kts 275°
2026-05-06 17:06 49.96174 7.75797 23820 ft 413 kts 275°
2026-05-06 17:07 49.96511 7.71350 23820 ft 413 kts 275°
2026-05-06 17:07 49.96849 7.66926 23820 ft 413 kts 275°
2026-05-06 17:07 49.97191 7.62495 23820 ft 413 kts 275°
2026-05-06 17:07 49.97533 7.58073 23825 ft 413 kts 275°
2026-05-06 17:08 49.97876 7.53634 23824 ft 413 kts 275°
2026-05-06 17:08 49.98213 7.49266 23827 ft 413 kts 275°
2026-05-06 17:08 49.98554 7.44835 23825 ft 413 kts 275°
2026-05-06 17:08 49.98894 7.40390 23827 ft 413 kts 275°
2026-05-06 17:09 49.99231 7.35956 23832 ft 413 kts 275°
2026-05-06 17:09 49.99566 7.31524 23830 ft 413 kts 275°
2026-05-06 17:09 49.99900 7.27085 23832 ft 414 kts 275°
2026-05-06 17:09 50.00231 7.22653 23828 ft 414 kts 275°
2026-05-06 17:10 50.00562 7.18213 23831 ft 413 kts 275°
2026-05-06 17:10 50.00891 7.13767 23830 ft 414 kts 275°
2026-05-06 17:10 50.01214 7.09388 23827 ft 414 kts 275°
2026-05-06 17:10 50.01540 7.04945 23833 ft 414 kts 275°
2026-05-06 17:11 50.01864 7.00495 23820 ft 413 kts 275°
2026-05-06 17:11 50.02187 6.96059 23825 ft 413 kts 275°
2026-05-06 17:11 50.02741 6.91668 23824 ft 415 kts 285°
2026-05-06 17:11 50.03802 6.87504 23827 ft 415 kts 294°
2026-05-06 17:12 50.05081 6.83480 23827 ft 415 kts 297°
2026-05-06 17:12 50.06457 6.79524 23829 ft 415 kts 298°
2026-05-06 17:12 50.07877 6.75602 23838 ft 415 kts 298°
2026-05-06 17:12 50.09287 6.71744 23832 ft 415 kts 298°
2026-05-06 17:13 50.10707 6.67838 23830 ft 415 kts 298°
2026-05-06 17:13 50.12115 6.63926 23827 ft 415 kts 298°
2026-05-06 17:13 50.13519 6.59989 23830 ft 415 kts 298°
2026-05-06 17:13 50.14909 6.56061 23829 ft 414 kts 298°
2026-05-06 17:14 50.16299 6.52118 23830 ft 414 kts 298°
2026-05-06 17:14 50.17681 6.48185 23828 ft 414 kts 297°
2026-05-06 17:14 50.19065 6.44242 23830 ft 414 kts 298°
2026-05-06 17:14 50.20507 6.40353 23836 ft 414 kts 300°
2026-05-06 17:15 50.22002 6.36565 23836 ft 414 kts 301°
2026-05-06 17:15 50.23539 6.32764 23839 ft 414 kts 301°
2026-05-06 17:15 50.25082 6.28959 23843 ft 414 kts 301°
2026-05-06 17:15 50.26613 6.25151 23846 ft 414 kts 301°
2026-05-06 17:16 50.28137 6.21324 23849 ft 414 kts 301°
2026-05-06 17:16 50.29648 6.17493 23854 ft 414 kts 301°
2026-05-06 17:16 50.31154 6.13654 23857 ft 414 kts 301°
2026-05-06 17:16 50.32656 6.09810 23859 ft 414 kts 300°
2026-05-06 17:17 50.34158 6.05957 23859 ft 430 kts 300°
2026-05-06 17:17 50.35758 6.01841 23855 ft 453 kts 300°
2026-05-06 17:17 50.37434 5.97528 23862 ft 473 kts 301°
2026-05-06 17:17 50.39164 5.93073 23869 ft 477 kts 301°
2026-05-06 17:18 50.40863 5.88696 23873 ft 477 kts 301°
2026-05-06 17:18 50.42585 5.84252 23893 ft 478 kts 300°
2026-05-06 17:18 50.44321 5.79765 24144 ft 485 kts 300°
2026-05-06 17:18 50.46066 5.75244 24884 ft 485 kts 300°
2026-05-06 17:19 50.47822 5.70685 25536 ft 489 kts 300°
2026-05-06 17:19 50.49588 5.66093 26067 ft 494 kts 300°
2026-05-06 17:19 50.51373 5.61444 26619 ft 499 kts 300°
2026-05-06 17:19 50.53168 5.56759 27190 ft 503 kts 300°
2026-05-06 17:20 50.54964 5.52062 27752 ft 506 kts 300°
2026-05-06 17:20 50.56779 5.47306 28419 ft 507 kts 300°
2026-05-06 17:20 50.58565 5.42622 29127 ft 506 kts 300°
2026-05-06 17:20 50.60378 5.37855 29709 ft 507 kts 300°
2026-05-06 17:21 50.62186 5.33093 29884 ft 506 kts 300°
2026-05-06 17:21 50.65778 5.23606 29887 ft 505 kts 299°
2026-05-06 17:22 50.69366 5.14092 29887 ft 504 kts 299°
2026-05-06 17:22 50.72944 5.04569 29885 ft 504 kts 299°
2026-05-06 17:23 50.76486 4.95109 29886 ft 503 kts 299°
2026-05-06 17:23 50.80035 4.85595 29886 ft 502 kts 299°
2026-05-06 17:24 50.83577 4.76064 29886 ft 502 kts 299°
2026-05-06 17:24 50.87097 4.66558 29950 ft 498 kts 299°
2026-05-06 17:25 50.90540 4.57226 29885 ft 491 kts 299°
2026-05-06 17:25 50.93971 4.47884 29884 ft 490 kts 299°
2026-05-06 17:26 50.97392 4.38546 29884 ft 490 kts 299°
2026-05-06 17:26 51.00808 4.29192 29885 ft 489 kts 299°
2026-05-06 17:27 51.04205 4.19847 29904 ft 488 kts 299°
2026-05-06 17:27 51.07569 4.10562 29901 ft 488 kts 299°
2026-05-06 17:28 51.10948 4.01189 29901 ft 488 kts 299°
2026-05-06 17:28 51.14318 3.91828 29895 ft 487 kts 299°
2026-05-06 17:29 51.17101 3.84056 29902 ft 487 kts 298°
2026-05-06 17:29 51.20997 3.73139 29903 ft 486 kts 298°
2026-05-06 17:30 51.24337 3.63768 29906 ft 485 kts 298°
2026-05-06 17:30 51.27757 3.54485 29911 ft 485 kts 300°
2026-05-06 17:31 51.30633 3.46801 29914 ft 484 kts 300°
2026-05-06 17:31 51.34044 3.37531 29916 ft 483 kts 297°
2026-05-06 17:32 51.36703 3.27698 29925 ft 481 kts 290°
2026-05-06 17:32 51.39076 3.17769 29931 ft 480 kts 289°
2026-05-06 17:33 51.41415 3.07771 29938 ft 480 kts 289°
2026-05-06 17:33 51.43760 2.97749 29936 ft 480 kts 289°
2026-05-06 17:34 51.46094 2.87729 29936 ft 480 kts 289°
2026-05-06 17:34 51.48428 2.77691 29938 ft 480 kts 289°
2026-05-06 17:35 51.50737 2.67736 29942 ft 480 kts 289°
2026-05-06 17:35 51.53067 2.57633 29934 ft 480 kts 289°
2026-05-06 17:36 51.56522 2.42592 29943 ft 480 kts 289°
2026-05-06 17:36 51.58820 2.32520 29958 ft 480 kts 289°
2026-05-06 17:37 51.61112 2.22421 29947 ft 480 kts 289°
2026-05-06 17:37 51.63393 2.12318 29965 ft 480 kts 289°
2026-05-06 17:38 51.65649 2.02289 29950 ft 480 kts 289°
2026-05-06 17:38 51.67907 1.92173 29947 ft 480 kts 289°
2026-05-06 17:39 51.69021 1.87172 29384 ft 470 kts 289°
2026-05-06 17:39 51.70124 1.82206 28138 ft 473 kts 289°
2026-05-06 17:39 51.71232 1.77210 27178 ft 473 kts 289°
2026-05-06 17:39 51.72332 1.72236 26452 ft 468 kts 289°
2026-05-06 17:40 51.73415 1.67331 25803 ft 463 kts 289°
2026-05-06 17:40 51.74331 1.62388 25315 ft 458 kts 280°
2026-05-06 17:40 51.74515 1.57414 25031 ft 444 kts 266°
2026-05-06 17:40 51.74249 1.52522 24643 ft 432 kts 264°
2026-05-06 17:41 51.73927 1.47681 23751 ft 435 kts 264°
2026-05-06 17:41 51.73604 1.42863 23276 ft 425 kts 264°
2026-05-06 17:41 51.73294 1.38198 22969 ft 412 kts 264°
2026-05-06 17:41 51.72995 1.33683 22673 ft 399 kts 264°
2026-05-06 17:42 51.72704 1.29301 22398 ft 386 kts 264°
2026-05-06 17:42 51.72426 1.25118 22178 ft 375 kts 264°
2026-05-06 17:42 51.72151 1.21001 21843 ft 366 kts 264°
2026-05-06 17:42 51.71882 1.16985 21607 ft 355 kts 264°
2026-05-06 17:43 51.71619 1.13072 21405 ft 345 kts 264°
2026-05-06 17:43 51.71364 1.09315 21069 ft 329 kts 264°
2026-05-06 17:43 51.71118 1.05684 20141 ft 323 kts 264°
2026-05-06 17:43 51.70872 1.02085 19156 ft 323 kts 264°
2026-05-06 17:44 51.70627 0.98511 18257 ft 319 kts 264°
2026-05-06 17:44 51.70387 0.95019 17271 ft 316 kts 264°
2026-05-06 17:44 51.70151 0.91533 16485 ft 308 kts 264°
2026-05-06 17:44 51.69913 0.88120 16087 ft 306 kts 264°
2026-05-06 17:45 51.69674 0.84709 15985 ft 306 kts 264°
2026-05-06 17:45 51.69434 0.81299 15984 ft 306 kts 264°
2026-05-06 17:45 51.69194 0.77891 15988 ft 305 kts 264°
2026-05-06 17:45 51.68954 0.74495 15991 ft 305 kts 264°
2026-05-06 17:46 51.68716 0.71134 15993 ft 308 kts 264°
2026-05-06 17:46 51.68473 0.67725 15844 ft 303 kts 264°
2026-05-06 17:46 51.68237 0.64345 15303 ft 302 kts 264°
2026-05-06 17:46 51.67995 0.60996 14481 ft 301 kts 264°
2026-05-06 17:47 51.67752 0.57661 13761 ft 297 kts 264°
2026-05-06 17:47 51.67514 0.54388 13189 ft 294 kts 264°
2026-05-06 17:47 51.67275 0.51101 12997 ft 295 kts 264°
2026-05-06 17:47 51.67037 0.47828 12982 ft 294 kts 264°
2026-05-06 17:48 51.66805 0.44607 12926 ft 287 kts 264°
2026-05-06 17:48 51.66578 0.41562 12807 ft 261 kts 264°
2026-05-06 17:48 51.66366 0.38724 12729 ft 255 kts 264°
2026-05-06 17:48 51.66156 0.35879 12631 ft 256 kts 264°
2026-05-06 17:49 51.65944 0.33023 12472 ft 256 kts 264°
2026-05-06 17:49 51.65735 0.30213 12312 ft 255 kts 264°
2026-05-06 17:49 51.65523 0.27385 12159 ft 254 kts 264°
2026-05-06 17:49 51.65311 0.24556 12007 ft 255 kts 264°
2026-05-06 17:50 51.65096 0.21703 11867 ft 255 kts 264°
2026-05-06 17:50 51.64883 0.18881 11680 ft 253 kts 264°
2026-05-06 17:50 51.64621 0.16133 11462 ft 252 kts 261°
2026-05-06 17:50 51.64302 0.13359 11128 ft 251 kts 261°
2026-05-06 17:51 51.63978 0.10601 10798 ft 251 kts 261°
2026-05-06 17:51 51.63654 0.07848 10485 ft 250 kts 261°
2026-05-06 17:51 51.63331 0.05112 10171 ft 249 kts 261°
2026-05-06 17:51 51.63005 0.02378 9844 ft 248 kts 261°
2026-05-06 17:52 51.62680 -0.00342 9497 ft 247 kts 261°
2026-05-06 17:52 51.62358 -0.03053 9133 ft 246 kts 261°
2026-05-06 17:52 51.62043 -0.05756 9003 ft 245 kts 261°
2026-05-06 17:52 51.61733 -0.08458 8991 ft 246 kts 261°
2026-05-06 17:53 51.61418 -0.11172 9035 ft 246 kts 261°
2026-05-06 17:53 51.61102 -0.13876 9036 ft 246 kts 261°
2026-05-06 17:53 51.60787 -0.16558 9039 ft 246 kts 261°
2026-05-06 17:53 51.60470 -0.19255 9042 ft 246 kts 261°
2026-05-06 17:54 51.60148 -0.21964 9045 ft 246 kts 261°
2026-05-06 17:54 51.59824 -0.24665 9027 ft 245 kts 261°
2026-05-06 17:54 51.59501 -0.27345 8662 ft 243 kts 261°
2026-05-06 17:54 51.59180 -0.30035 8288 ft 245 kts 261°
2026-05-06 17:55 51.58864 -0.32698 7959 ft 244 kts 261°
2026-05-06 17:55 51.58548 -0.35377 7614 ft 244 kts 261°
2026-05-06 17:55 51.58256 -0.38051 7296 ft 242 kts 263°
2026-05-06 17:55 51.58065 -0.40733 7045 ft 240 kts 265°
2026-05-06 17:56 51.57897 -0.43415 6994 ft 241 kts 265°
2026-05-06 17:56 51.57728 -0.46104 6994 ft 241 kts 266°
2026-05-06 17:56 51.57561 -0.48749 6995 ft 240 kts 265°
2026-05-06 17:56 51.57388 -0.51420 6995 ft 240 kts 266°
2026-05-06 17:57 51.57213 -0.54086 7000 ft 239 kts 266°
2026-05-06 17:57 51.57033 -0.56778 7009 ft 252 kts 265°
2026-05-06 17:57 51.56848 -0.59564 6944 ft 246 kts 266°
2026-05-06 17:57 51.56667 -0.62255 6836 ft 236 kts 265°
2026-05-06 17:58 51.56493 -0.64819 6722 ft 226 kts 266°
2026-05-06 17:58 51.56322 -0.67247 6628 ft 217 kts 265°
2026-05-06 17:58 51.56153 -0.69604 6537 ft 208 kts 265°
2026-05-06 17:58 51.55988 -0.71868 6439 ft 200 kts 266°
2026-05-06 17:59 51.55824 -0.74057 6266 ft 196 kts 265°
2026-05-06 17:59 51.55662 -0.76230 6017 ft 195 kts 266°
2026-05-06 17:59 51.55499 -0.78390 5775 ft 195 kts 265°
2026-05-06 17:59 51.55333 -0.80540 5548 ft 194 kts 265°
2026-05-06 18:00 51.54839 -0.82551 5233 ft 199 kts 232°
2026-05-06 18:00 51.53692 -0.83769 4988 ft 202 kts 196°
2026-05-06 18:00 51.52329 -0.84059 4789 ft 200 kts 182°
2026-05-06 18:00 51.50948 -0.83896 4481 ft 201 kts 160°
2026-05-06 18:01 51.49789 -0.82705 4240 ft 197 kts 135°
2026-05-06 18:01 51.48832 -0.81150 4014 ft 196 kts 131°
2026-05-06 18:01 51.47933 -0.79515 3729 ft 194 kts 122°
2026-05-06 18:01 51.47590 -0.77479 3477 ft 188 kts 88°
2026-05-06 18:02 51.47636 -0.75404 3262 ft 185 kts 83°
2026-05-06 18:02 51.47668 -0.73365 3122 ft 180 kts 86°
2026-05-06 18:02 51.47672 -0.71408 2998 ft 172 kts 86°
2026-05-06 18:02 51.47673 -0.69527 2784 ft 170 kts 86°
2026-05-06 18:03 51.47681 -0.67659 2517 ft 164 kts 86°
2026-05-06 18:03 51.47687 -0.65848 2290 ft 161 kts 86°
2026-05-06 18:03 51.47694 -0.64061 2068 ft 160 kts 85°
2026-05-06 18:03 51.47701 -0.62282 1848 ft 159 kts 86°
2026-05-06 18:04 51.47706 -0.60561 1628 ft 148 kts 85°
2026-05-06 18:04 51.47712 -0.58989 1437 ft 137 kts 86°
2026-05-06 18:04 51.47717 -0.57516 1252 ft 130 kts 85°
2026-05-06 18:04 51.47723 -0.56059 1074 ft 130 kts 85°
2026-05-06 18:05 51.47728 -0.54618 877 ft 129 kts 85°
2026-05-06 18:05 51.47733 -0.53169 693 ft 129 kts 85°
2026-05-06 18:05 51.47738 -0.51737 525 ft 129 kts 85°
2026-05-06 18:05 51.47743 -0.50320 343 ft 127 kts 87°
2026-05-06 18:06 51.47750 -0.48912 187 ft 126 kts 85°
2026-05-06 18:06 51.47751 -0.47514 105 ft 124 kts 86°
2026-05-06 18:06 51.47767 -0.46319 97 ft 76 kts 90°
2026-05-06 18:06 51.47762 -0.45756 91 ft 29 kts 92°
2026-05-06 18:07 51.47737 -0.45512 95 ft 17 kts 122°
2026-05-06 18:07 51.47687 -0.45458 95 ft 3 kts 167°
2026-05-06 18:07 51.47634 -0.45469 93 ft 11 kts 201°
2026-05-06 18:07 51.47589 -0.45566 95 ft 12 kts 267°
2026-05-06 18:08 51.47576 -0.45727 96 ft 8 kts 241°
2026-05-06 18:08 51.47524 -0.45815 96 ft 16 kts 239°
2026-05-06 18:08 51.47486 -0.46008 97 ft 21 kts 243°